When you browse on this site, cookies collect data to enhance your experience and personalize the content and advertising you see.
Visit our Privacy Policy to learn more. By continuing to use the site, you agree to this use of cookies and data.
  • In Spain
  • List of Countries
  • For 7 days
  • Water Temperature
  • Weather Map
  • Weather Widgets
  • user-avatar
    Login

    Hourly Weather Babni

    Today, 31 May, Sunday

    Time Temperature Precipitation Wind Pressure Humidity
    00:00 +14°C° 1.1 mm 7 mps 739 mmHg 86%
    01:00 +12°C° 1.1 mm 7 mps 739 mmHg 90%
    02:00 +12°C° 0 mm 5 mps 740 mmHg 93%
    03:00 +11°C° 1.5 mm 6 mps 740 mmHg 94%
    04:00 +10°C° 1.5 mm 6 mps 740 mmHg 95%
    05:00 +10°C° 1.5 mm 7 mps 740 mmHg 95%
    06:00 +10°C° 2.1 mm 7 mps 740 mmHg 95%
    07:00 +10°C° 2.1 mm 7 mps 740 mmHg 95%
    08:00 +10°C° 0 mm 6 mps 741 mmHg 94%
    09:00 +10°C° 0.4 mm 6 mps 741 mmHg 91%
    10:00 +12°C° 0.4 mm 5 mps 741 mmHg 88%
    11:00 +12°C° 0.4 mm 5 mps 741 mmHg 85%
    12:00 +13°C° 0.1 mm 5 mps 742 mmHg 77%
    13:00 +15°C° 0.1 mm 6 mps 742 mmHg 69%
    14:00 +16°C° 0.1 mm 6 mps 742 mmHg 60%
    15:00 +15°C° 0.1 mm 6 mps 742 mmHg 65%
    16:00 +14°C° 0.1 mm 5 mps 742 mmHg 70%
    17:00 +14°C° 0.1 mm 4 mps 742 mmHg 74%
    18:00 +12°C° 0.1 mm 4 mps 742 mmHg 75%
    19:00 +11°C° 0.1 mm 4 mps 743 mmHg 77%
    20:00 +10°C° 0.1 mm 4 mps 743 mmHg 78%
    21:00 +8°C° 0 mm 4 mps 743 mmHg 78%
    22:00 +7°C° 0 mm 4 mps 743 mmHg 78%
    23:00 +6°C° 0 mm 4 mps 743 mmHg 78%

    Tomorrow, 1 June, Monday

    Time Temperature Precipitation Wind Pressure Humidity
    00:00 +6°C° 0 mm 4 mps 744 mmHg 78%
    01:00 +5°C° 0 mm 4 mps 744 mmHg 78%
    02:00 +4°C° 0 mm 4 mps 744 mmHg 77%
    03:00 +3°C° 0 mm 5 mps 744 mmHg 78%
    04:00 +3°C° 0 mm 5 mps 743 mmHg 79%
    05:00 +3°C° 0 mm 5 mps 743 mmHg 80%
    06:00 +4°C° 0 mm 6 mps 743 mmHg 76%
    07:00 +5°C° 0 mm 6 mps 744 mmHg 73%
    08:00 +6°C° 0 mm 7 mps 744 mmHg 69%
    09:00 +7°C° 0.1 mm 6 mps 744 mmHg 74%
    10:00 +5°C° 0.1 mm 6 mps 743 mmHg 79%
    11:00 +6°C° 0.1 mm 5 mps 743 mmHg 84%
    12:00 +7°C° 0 mm 6 mps 743 mmHg 83%
    13:00 +7°C° 0 mm 6 mps 743 mmHg 81%
    14:00 +8°C° 0 mm 7 mps 743 mmHg 79%
    15:00 +8°C° 0 mm 7 mps 743 mmHg 79%
    16:00 +8°C° 0 mm 7 mps 742 mmHg 79%
    17:00 +8°C° 0 mm 7 mps 742 mmHg 79%
    18:00 +8°C° 0.3 mm 7 mps 742 mmHg 82%
    19:00 +8°C° 0.3 mm 7 mps 741 mmHg 84%
    20:00 +8°C° 0.3 mm 6 mps 741 mmHg 87%
    21:00 +8°C° 0.4 mm 7 mps 741 mmHg 88%
    22:00 +8°C° 0.4 mm 7 mps 740 mmHg 89%
    23:00 +8°C° 0.4 mm 7 mps 740 mmHg 89%

    Day after tomorrow, 2 June, Tuesday

    Time Temperature Precipitation Wind Pressure Humidity
    00:00 +7°C° 1.9 mm 8 mps 739 mmHg 91%
    01:00 +6°C° 1.9 mm 8 mps 739 mmHg 93%
    02:00 +6°C° 1.9 mm 8 mps 738 mmHg 94%
    03:00 +6°C° 1.2 mm 8 mps 738 mmHg 94%
    04:00 +6°C° 1.2 mm 8 mps 738 mmHg 95%
    05:00 +6°C° 1.2 mm 8 mps 737 mmHg 95%
    06:00 +7°C° 1.1 mm 8 mps 738 mmHg 95%
    07:00 +8°C° 1.1 mm 7 mps 738 mmHg 95%
    08:00 +8°C° 1.1 mm 7 mps 738 mmHg 95%
    09:00 +8°C° 0.2 mm 7 mps 739 mmHg 94%
    10:00 +8°C° 0.2 mm 7 mps 739 mmHg 94%
    11:00 +9°C° 0.2 mm 7 mps 739 mmHg 93%
    12:00 +9°C° 0.2 mm 7 mps 740 mmHg 93%
    13:00 +9°C° 0.2 mm 6 mps 740 mmHg 93%
    14:00 +9°C° 0.2 mm 6 mps 740 mmHg 93%
    15:00 +9°C° 0.3 mm 6 mps 740 mmHg 94%
    16:00 +9°C° 0.3 mm 5 mps 740 mmHg 94%
    17:00 +9°C° 0.3 mm 5 mps 739 mmHg 95%
    18:00 +10°C° 0.2 mm 4 mps 740 mmHg 96%
    19:00 +10°C° 0.2 mm 4 mps 740 mmHg 96%
    20:00 +10°C° 0.2 mm 3 mps 740 mmHg 97%
    21:00 +10°C° 0.1 mm 3 mps 740 mmHg 97%
    22:00 +9°C° 0.1 mm 3 mps 739 mmHg 98%
    23:00 +9°C° 0.1 mm 2 mps 739 mmHg 98%

    3 June, Wednesday

    Time Temperature Precipitation Wind Pressure Humidity
    00:00 +8°C° 0 mm 2 mps 739 mmHg 98%
    01:00 +8°C° 0 mm 2 mps 740 mmHg 97%
    02:00 +7°C° 0 mm 2 mps 740 mmHg 97%
    03:00 +7°C° 0 mm 2 mps 740 mmHg 97%
    04:00 +7°C° 0 mm 2 mps 740 mmHg 96%
    05:00 +7°C° 0 mm 2 mps 740 mmHg 96%
    06:00 +9°C° 0 mm 2 mps 740 mmHg 91%
    07:00 +12°C° 0 mm 2 mps 740 mmHg 87%
    08:00 +12°C° 0 mm 3 mps 740 mmHg 82%
    09:00 +14°C° 0 mm 3 mps 740 mmHg 75%
    10:00 +15°C° 0 mm 4 mps 740 mmHg 68%
    11:00 +17°C° 0 mm 4 mps 740 mmHg 60%
    12:00 +17°C° 0.1 mm 4 mps 740 mmHg 60%
    13:00 +18°C° 0.1 mm 4 mps 739 mmHg 60%
    14:00 +18°C° 0.1 mm 4 mps 739 mmHg 60%
    15:00 +18°C° 0.3 mm 4 mps 739 mmHg 67%
    16:00 +17°C° 0.3 mm 3 mps 739 mmHg 74%
    17:00 +17°C° 0.3 mm 3 mps 739 mmHg 81%
    18:00 +15°C° 0.5 mm 2 mps 739 mmHg 85%
    19:00 +14°C° 0.5 mm 2 mps 739 mmHg 90%
    20:00 +13°C° 0.5 mm 1 mps 739 mmHg 95%
    21:00 +13°C° 0.1 mm 1 mps 739 mmHg 95%
    22:00 +12°C° 0.1 mm 1 mps 739 mmHg 95%
    23:00 +12°C° 0.1 mm 1 mps 739 mmHg 95%

    4 June, Thursday

    Time Temperature Precipitation Wind Pressure Humidity
    00:00 +12°C° 0 mm 1 mps 738 mmHg 95%
    01:00 +11°C° 0 mm 1 mps 738 mmHg 95%
    02:00 +11°C° 0 mm 1 mps 738 mmHg 96%
    03:00 +11°C° 0 mm 1 mps 738 mmHg 96%
    04:00 +11°C° 0 mm 1 mps 737 mmHg 96%
    05:00 +11°C° 0 mm 1 mps 737 mmHg 96%
    06:00 +12°C° 0 mm 1 mps 737 mmHg 92%
    07:00 +13°C° 0 mm 1 mps 737 mmHg 88%
    08:00 +15°C° 0 mm 1 mps 737 mmHg 84%
    09:00 +16°C° 0.3 mm 2 mps 737 mmHg 80%
    10:00 +17°C° 0.3 mm 2 mps 737 mmHg 76%
    11:00 +17°C° 0.3 mm 3 mps 737 mmHg 73%
    12:00 +17°C° 0.6 mm 3 mps 736 mmHg 75%
    13:00 +17°C° 0.6 mm 3 mps 736 mmHg 77%
    14:00 +17°C° 0.6 mm 3 mps 736 mmHg 78%
    15:00 +17°C° 0.5 mm 3 mps 736 mmHg 80%
    16:00 +17°C° 0.5 mm 3 mps 736 mmHg 81%
    17:00 +17°C° 0.5 mm 3 mps 736 mmHg 82%
    18:00 +14°C° 0.4 mm 3 mps 735 mmHg 86%
    19:00 +14°C° 0.4 mm 2 mps 735 mmHg 89%
    20:00 +13°C° 0.4 mm 2 mps 735 mmHg 93%
    21:00 +12°C° 0 mm 2 mps 735 mmHg 93%
    22:00 +10°C° 0 mm 2 mps 735 mmHg 94%
    23:00 +9°C° 0 mm 2 mps 735 mmHg 94%

    5 June, Friday

    Time Temperature Precipitation Wind Pressure Humidity
    00:00 +9°C° 0 mm 2 mps 735 mmHg 95%
    01:00 +9°C° 0 mm 2 mps 735 mmHg 96%
    02:00 +8°C° 0 mm 2 mps 735 mmHg 97%
    03:00 +8°C° 0 mm 3 mps 735 mmHg 97%
    04:00 +9°C° 0 mm 3 mps 735 mmHg 97%
    05:00 +9°C° 0 mm 3 mps 735 mmHg 97%
    06:00 +10°C° 0 mm 3 mps 735 mmHg 93%
    07:00 +12°C° 0 mm 3 mps 735 mmHg 89%
    08:00 +13°C° 0 mm 4 mps 736 mmHg 86%
    09:00 +15°C° 0.2 mm 4 mps 735 mmHg 80%
    10:00 +17°C° 0.2 mm 4 mps 735 mmHg 74%
    11:00 +18°C° 0.2 mm 4 mps 735 mmHg 68%
    12:00 +18°C° 0.1 mm 4 mps 735 mmHg 66%
    13:00 +19°C° 0.1 mm 4 mps 735 mmHg 64%
    14:00 +19°C° 0.1 mm 4 mps 735 mmHg 63%
    15:00 +19°C° 0.3 mm 4 mps 734 mmHg 69%
    16:00 +18°C° 0.3 mm 4 mps 734 mmHg 75%
    17:00 +17°C° 0.3 mm 4 mps 734 mmHg 81%
    18:00 +16°C° 0.3 mm 3 mps 734 mmHg 86%
    19:00 +14°C° 0.3 mm 3 mps 734 mmHg 92%
    20:00 +13°C° 0.3 mm 3 mps 734 mmHg 97%
    21:00 +13°C° 0.6 mm 3 mps 734 mmHg 97%
    22:00 +13°C° 0.6 mm 3 mps 734 mmHg 97%
    23:00 +13°C° 0.6 mm 3 mps 734 mmHg 98%
    Show more